DW7304 Weather Reports


Display with metric or nautical units.
time (UTC)temp
F
wind
direction
speed
MPH
gust
MPH
rain 1hr
in
rain 24hr
in
rain mn
in
humidity
%
barometer
mb
20190116154819 36 208 6.0 9.0 0.00 0.00 0.00 74 1017.8
20190116153918 37 203 5.0 11.0 0.00 0.00 0.00 73 1017.8
20190116153018 38 219 5.0 10.0 0.00 0.00 0.00 71 1017.7
20190116152118 38 202 5.0 8.0 0.00 0.00 0.00 71 1017.7
20190116151218 38 203 6.0 12.0 0.00 0.00 0.00 69 1017.7
20190116150318 39 203 8.0 12.0 0.00 0.00 0.00 68 1017.7
20190116145418 40 208 6.0 11.0 0.00 0.00 0.00 67 1017.8
20190116144518 40 212 7.0 13.0 0.00 0.00 0.00 67 1017.7
20190116143618 40 220 7.0 11.0 0.00 0.00 0.00 67 1017.6
20190116142721 39 190 8.0 13.0 0.00 0.00 0.00 66 1018.0
20190116141818 39 205 8.0 12.0 0.00 0.00 0.00 63 1017.8
20190116140919 41 205 9.0 17.0 0.00 0.00 0.00 62 1017.8
20190116140018 41 180 8.0 14.0 0.00 0.00 0.00 62 1017.6
20190116135118 43 226 6.0 11.0 0.00 0.00 0.00 64 1017.8
20190116134219 42 210 6.0 11.0 0.00 0.00 0.00 66 1017.8
20190116133318 40 215 7.0 12.0 0.00 0.00 0.00 67 1017.8
20190116132418 40 185 7.0 11.0 0.00 0.00 0.00 68 1017.8
20190116131518 40 195 8.0 13.0 0.00 0.00 0.00 68 1017.8
20190116130618 40 187 8.0 14.0 0.00 0.00 0.00 68 1017.8
20190116125718 40 191 7.0 14.0 0.00 0.00 0.00 68 1018.0
20190116124818 41 210 8.0 14.0 0.00 0.00 0.00 68 1018.1
20190116123918 41 205 8.0 15.0 0.00 0.00 0.00 69 1018.1
20190116123018 40 200 7.0 12.0 0.00 0.00 0.00 69 1018.0
20190116122118 41 219 8.0 14.0 0.00 0.00 0.00 68 1018.1
20190116121218 41 195 9.0 14.0 0.00 0.00 0.00 69 1018.0
20190116120318 42 200 10.0 15.0 0.00 0.00 0.00 69 1018.3
20190116115418 42 204 8.0 15.0 0.00 0.00 0.00 70 1018.0
20190116114518 40 186 8.0 13.0 0.00 0.00 0.00 70 1018.2
20190116113618 40 196 8.0 12.0 0.00 0.00 0.00 71 1018.3
20190116112718 40 195 9.0 16.0 0.00 0.00 0.00 71 1018.4
20190116111818 39 190 8.0 13.0 0.00 0.00 0.00 70 1018.4
20190116110918 40 201 7.0 13.0 0.00 0.00 0.00 71 1018.5
20190116110018 40 211 7.0 13.0 0.00 0.00 0.00 70 1018.5
20190116105118 41 215 8.0 12.0 0.00 0.00 0.00 70 1018.7
20190116104218 41 219 6.0 12.0 0.00 0.00 0.00 72 1018.6
20190116103318 40 226 6.0 10.0 0.00 0.00 0.00 74 1018.5
20190116102418 39 220 5.0 10.0 0.00 0.00 0.00 74 1018.8
20190116101518 40 251 5.0 9.0 0.00 0.00 0.00 76 1018.9
20190116100618 40 244 5.0 11.0 0.00 0.00 0.00 77 1018.8
20190116095718 40 217 5.0 9.0 0.00 0.00 0.00 80 1018.9
20190116094818 38 206 4.0 8.0 0.00 0.00 0.00 82 1019.0
20190116093918 37 247 3.0 5.0 0.00 0.00 0.00 82 1019.0
20190116093018 37 247 2.0 5.0 0.00 0.00 0.00 82 1019.0
20190116092118 37 247 2.0 4.0 0.00 0.00 0.00 83 1019.2
20190116091218 37 247 4.0 7.0 0.00 0.00 0.00 83 1019.3
20190116090318 37 263 4.0 9.0 0.00 0.00 0.00 83 1019.2
20190116085418 37 270 4.0 7.0 0.00 0.00 0.00 83 1018.9
20190116084518 36 270 3.0 6.0 0.00 0.00 0.00 83 1019.1
20190116083618 36 232 2.0 4.0 0.00 0.00 0.00 83 1019.1
20190116082718 36 225 3.0 6.0 0.00 0.00 0.00 83 1019.0
20190116081818 36 205 3.0 6.0 0.00 0.00 0.00 83 1019.1
20190116080918 35 186 4.0 7.0 0.00 0.00 0.00 83 1019.0
20190116080018 35 187 5.0 10.0 0.00 0.00 0.00 82 1018.9
20190116075118 35 175 4.0 8.0 0.00 0.00 0.00 82 1018.8
20190116074219 35 182 3.0 6.0 0.00 0.00 0.00 82 1018.8
20190116073318 35 180 2.0 6.0 0.00 0.00 0.00 82 1018.7
20190116072418 35 180 1.0 3.0 0.00 0.00 0.00 81 1018.7
20190116071518 35 180 2.0 4.0 0.00 0.00 0.00 81 1018.7
20190116070618 35 192 2.0 4.0 0.00 0.00 0.00 80 1018.4
20190116065721 35 182 2.0 4.0 0.00 0.00 0.00 80 1018.4
20190116064818 35 201 2.0 5.0 0.00 0.00 0.00 80 1018.4
20190116063918 35 199 3.0 6.0 0.00 0.00 0.00 80 1018.2
20190116063018 35 181 4.0 11.0 0.00 0.00 0.00 80 1018.2
20190116062118 35 233 3.0 5.0 0.00 0.00 0.00 79 1018.1
20190116061219 35 205 1.0 4.0 0.00 0.00 0.00 79 1018.3
20190116060318 36 181 3.0 5.0 0.00 0.00 0.00 79 1018.1
20190116055418 36 181 3.0 9.0 0.00 0.00 0.00 79 1018.2
20190116054518 36 174 5.0 11.0 0.00 0.00 0.00 79 1018.1
20190116053619 35 181 5.0 9.0 0.00 0.00 0.00 79 1018.0
20190116052718 35 191 5.0 12.0 0.00 0.00 0.00 79 1018.0
20190116051818 35 184 3.0 6.0 0.00 0.00 0.00 79 1018.1
20190116050919 35 190 2.0 6.0 0.00 0.00 0.00 79 1018.1
20190116050018 35 202 1.0 3.0 0.00 0.00 0.00 79 1018.1
20190116045118 35 202 0.0 2.0 0.00 0.00 0.00 79 1018.1
20190116044218 35 202 1.0 5.0 0.00 0.00 0.00 79 1018.1
20190116043318 35 199 3.0 6.0 0.00 0.00 0.00 79 1018.1
20190116042419 35 187 3.0 5.0 0.00 0.00 0.00 78 1018.1
20190116041518 35 185 3.0 7.0 0.00 0.00 0.00 78 1018.0
20190116040618 36 185 3.0 8.0 0.00 0.00 0.00 77 1018.0
20190116035719 35 183 2.0 7.0 0.00 0.00 0.00 77 1018.2
20190116034818 35 191 2.0 5.0 0.00 0.00 0.00 76 1018.1
20190116033918 35 184 3.0 6.0 0.00 0.00 0.00 75 1018.1
20190116033018 35 166 2.0 6.0 0.00 0.00 0.00 75 1018.2
20190116032118 35 171 2.0 4.0 0.00 0.00 0.00 74 1018.2
20190116031218 35 180 1.0 3.0 0.00 0.00 0.00 74 1018.3
20190116030318 34 180 1.0 3.0 0.00 0.00 0.00 73 1018.4
20190116025418 34 166 1.0 4.0 0.00 0.00 0.00 73 1018.4
20190116024518 35 0 0.0 0.0 0.00 0.00 0.00 73 1018.4
20190116023618 35 157 0.0 1.0 0.00 0.00 0.00 73 1018.6
20190116022718 35 157 0.0 1.0 0.00 0.00 0.00 72 1018.5
20190116021818 35 157 0.0 1.0 0.00 0.00 0.00 72 1018.8
20190116020918 35 157 0.0 2.0 0.00 0.00 0.00 71 1018.8
20190116020018 35 157 0.0 2.0 0.00 0.00 0.00 70 1018.8
20190116015118 34 0 0.0 0.0 0.00 0.00 0.00 69 1018.8
20190116014218 34 157 0.0 1.0 0.00 0.00 0.00 69 1018.9
20190116013318 34 157 0.0 2.0 0.00 0.00 0.00 67 1019.0
20190116012418 34 0 0.0 0.0 0.00 0.00 0.00 66 1019.0
20190116011518 34 0 0.0 0.0 0.00 0.00 0.00 65 1019.0
20190116010618 34 0 0.0 0.0 0.00 0.00 0.00 65 1019.0
20190116005719 34 157 0.0 1.0 0.00 0.00 0.00 64 1018.9
20190116004818 34 0 0.0 0.0 0.00 0.00 0.00 64 1019.0
20190116003918 34 0 0.0 0.0 0.00 0.00 0.00 64 1019.1
20190116003018 34 0 0.0 0.0 0.00 0.00 0.00 63 1018.9
20190116002118 34 0 0.0 0.0 0.00 0.00 0.00 63 1019.1
20190116001218 34 0 0.0 0.0 0.00 0.00 0.00 63 1019.1
20190116000318 34 157 0.0 2.0 0.00 0.00 0.00 64 1019.1
20190115235419 34 157 0.0 2.0 0.00 0.00 0.00 64 1019.1
20190115234518 34 173 0.0 2.0 0.00 0.00 0.00 65 1019.2
20190115233618 34 180 0.0 1.0 0.00 0.00 0.00 65 1019.0
20190115232718 34 180 0.0 1.0 0.00 0.00 0.00 65 1019.1
20190115231818 34 0 0.0 0.0 0.00 0.00 0.00 65 1019.0
20190115230919 34 180 0.0 1.0 0.00 0.00 0.00 65 1019.1
20190115230018 34 180 0.0 1.0 0.00 0.00 0.00 64 1019.3
20190115225118 34 180 0.0 1.0 0.00 0.00 0.00 63 1019.4
20190115224218 34 180 0.0 1.0 0.00 0.00 0.00 63 1019.2
20190115223318 34 180 0.0 1.0 0.00 0.00 0.00 63 1019.2
20190115222418 34 180 0.0 2.0 0.00 0.00 0.00 62 1019.5
20190115221518 34 180 0.0 2.0 0.00 0.00 0.00 61 1019.5
20190115220618 33 180 0.0 1.0 0.00 0.00 0.00 60 1019.5
20190115215719 33 180 0.0 1.0 0.00 0.00 0.00 60 1019.6
20190115214818 33 0 0.0 0.0 0.00 0.00 0.00 59 1019.6
20190115213918 33 180 0.0 2.0 0.00 0.00 0.00 59 1019.5
20190115213018 33 165 1.0 3.0 0.00 0.00 0.00 59 1019.5
20190115212118 34 157 0.0 1.0 0.00 0.00 0.00 59 1019.6
20190115211218 34 157 0.0 2.0 0.00 0.00 0.00 59 1019.7
20190115210318 34 157 0.0 2.0 0.00 0.00 0.00 59 1019.6
20190115205418 33 0 0.0 0.0 0.00 0.00 0.00 59 1019.6
20190115204518 33 157 0.0 1.0 0.00 0.00 0.00 59 1019.6
20190115203618 33 0 0.0 0.0 0.00 0.00 0.00 59 1019.5
20190115202718 33 0 0.0 0.0 0.00 0.00 0.00 59 1019.6
20190115201818 33 0 0.0 0.0 0.00 0.00 0.00 59 1019.5
20190115200918 33 157 0.0 1.0 0.00 0.00 0.00 59 1019.4
20190115200018 33 0 0.0 0.0 0.00 0.00 0.00 59 1019.2
20190115195118 34 0 0.0 0.0 0.00 0.00 0.00 59 1019.1
20190115194218 34 157 0.0 1.0 0.00 0.00 0.00 59 1019.1
20190115193318 34 157 0.0 2.0 0.00 0.00 0.00 59 1019.0
20190115192418 34 157 0.0 1.0 0.00 0.00 0.00 58 1019.0
20190115191518 34 0 0.0 0.0 0.00 0.00 0.00 58 1019.2
20190115190618 34 157 0.0 2.0 0.00 0.00 0.00 57 1019.1
20190115185718 33 0 0.0 0.0 0.00 0.00 0.00 57 1018.9
20190115184818 33 157 0.0 2.0 0.00 0.00 0.00 56 1019.0
20190115183918 34 157 0.0 2.0 0.00 0.00 0.00 56 1018.8
20190115183018 34 157 0.0 2.0 0.00 0.00 0.00 56 1019.0
20190115182118 34 157 1.0 2.0 0.00 0.00 0.00 55 1018.9
20190115181218 34 157 2.0 4.0 0.00 0.00 0.00 55 1018.9
20190115180318 34 157 2.0 3.0 0.00 0.00 0.00 55 1018.9
20190115175418 34 157 2.0 3.0 0.00 0.00 0.00 55 1018.9
20190115174518 34 167 2.0 4.0 0.00 0.00 0.00 55 1018.7
20190115173618 34 180 2.0 4.0 0.00 0.00 0.00 55 1018.7
20190115172718 34 180 1.0 3.0 0.00 0.00 0.00 55 1018.6
20190115171818 34 180 0.0 2.0 0.00 0.00 0.00 55 1018.6
20190115170918 34 180 0.0 1.0 0.00 0.00 0.00 54 1018.6
20190115170018 34 180 0.0 2.0 0.00 0.00 0.00 54 1018.7
20190115165118 34 180 1.0 2.0 0.00 0.00 0.00 53 1018.6
20190115164218 34 0 0.0 0.0 0.00 0.00 0.00 53 1018.7
20190115163318 34 180 0.0 2.0 0.00 0.00 0.00 52 1018.6
20190115162418 35 0 0.0 0.0 0.00 0.00 0.00 52 1018.6
20190115161518 35 180 0.0 1.0 0.00 0.00 0.00 51 1018.5
20190115160618 35 180 0.0 2.0 0.00 0.00 0.00 50 1018.5
20190115155718 35 180 1.0 3.0 0.00 0.00 0.00 50 1018.4